Weather Roundup
Issued by NWS

Home | Current Version | Previous Version | Graphics & Text | Print | Product List | Glossary Off
Versions: 1 2 3 4 5 6 7 8 9 10 11 12 13 14 15 16 17 18 19 20 21 22 23 24 25 26 27 28 29 30 31 32 33 34 35 36 37 38 39 40 41 42 43 44 45 46 47 48 49 50

105
NZUS93 KARX 261559
HRRWXR

CURRENT HOURLY OBSERVATIONS ACROSS
MUCH OF THE UPPER MISSISSIPPI VALLEY
NATIONAL WEATHER SERVICE LA CROSSE WI
1100 AM CDT FRI AUG 26 2016


...SOUTHEAST MINNESOTA...


CITY           SKY/WX    TMP DP  RH WIND       PRES   REMARKS
ROCHESTER      CLOUDY    65  57  75 VRB3      30.21F
ROCHESTER/MAYO FAIR      66  53  63 CALM      30.20F
WINONA         CLOUDY    66  55  68 CALM      30.20S
AUSTIN         CLOUDY    64  57  77 SE3       30.20S
ALBERT LEA     PTSUNNY   64  55  72 SE3       30.21S
DODGE CENTER   CLOUDY    70  55  60 CALM      30.20F
PRESTON        PTSUNNY   63  56  76 CALM      30.21F
OWATONNA       PTSUNNY   66  55  68 CALM      30.20F
FARIBAULT      CLOUDY    66  55  68 CALM      30.21S
$$

...ELSEWHERE IN MINNESOTA...


CITY           SKY/WX    TMP DP  RH WIND       PRES   REMARKS
MINNEAPOLIS    PTSUNNY   67  55  65 S5        30.19S
INTNL FALLS    SUNNY     66  55  67 VRB6      30.10F
DULUTH         MOSUNNY   69  50  50 CALM      30.16S
RED WING       CLOUDY    68  54  60 CALM      30.18F
REDWOOD FALLS  CLOUDY    65  55  70 SE7       30.19S
MANKATO        CLOUDY    64  55  72 SE5       30.20S
WORTHINGTON    CLOUDY    63  56  78 E8        30.20F
FAIRMONT       CLOUDY    63  57  81 SE3       30.20F
$$

...SOUTHWEST WISCONSIN...


CITY           SKY/WX    TMP DP  RH WIND       PRES   REMARKS
LA CROSSE      CLOUDY    69  58  67 CALM      30.19F
PRAIRIE DU CHI CLOUDY    66  57  71 NW3       30.19S
BOSCOBEL       CLOUDY    71  62  73 NW3       30.19F
LONE ROCK      NOT AVBL
PLATTEVILLE    CLOUDY    68  62  82 CALM      30.20S
FORT MC COY    PTSUNNY   64  58  80 CALM      30.21S
MAUSTON-NEW LI PTSUNNY   66  58  74 CALM      30.20S
VIROQUA        FAIR      65  57  76 CALM      30.21F
WIS DELLS      NOT AVBL
$$

...ELSEWHERE IN WISCONSIN...


CITY           SKY/WX    TMP DP  RH WIND       PRES   REMARKS
MILWAUKEE      PTSUNNY   74  53  48 VRB6      30.18S
MADISON        CLOUDY    69  58  67 NW3       30.19S
GREEN BAY      MOSUNNY   69  59  70 W7        30.16F
EAU CLAIRE     NOT AVBL
BLACK RVR FLS  FAIR      67  54  61 CALM      30.20S
MEDFORD        MOSUNNY   64  54  71 NW5       30.19S
WAUSAU         SUNNY     66  54  65 NW7       30.17S
WIS RAPIDS     MOSUNNY   68  56  65 W6        30.20F
MARSHFIELD     SUNNY     68  54  60 NW7       30.19S
RICE LAKE      SUNNY     65  53  64 CALM      30.20F
$$

...NORTHEAST IOWA...


CITY           SKY/WX    TMP DP  RH WIND       PRES   REMARKS
WATERLOO       CLOUDY    66  59  78 NE5       30.17F
DUBUQUE        CLOUDY    69  60  73 NE7       30.20F
DECORAH        PTSUNNY   64  57  77 NE5       30.20F
MASON CITY     PTSUNNY   64  57  78 E5        30.21F
CHARLES CITY   CLOUDY    66  57  72 E6        30.21S
OELWEIN        CLOUDY    64  59  82 NE6       30.20S
$$

...ELSEWHERE IN IOWA...


CITY           SKY/WX    TMP DP  RH WIND       PRES   REMARKS
DES MOINES     CLOUDY    68  62  81 E13       30.15F
IOWA CITY      CLOUDY    73  61  65 E12       30.18F
FORT DODGE     CLOUDY    66  61  82 E8        30.19F
MARSHALLTOWN   PTSUNNY   66  62  87 E6        30.18S
CEDAR RAPIDS   CLOUDY    69  64  84 NE8       30.17S
$$

...NORTHERN ILLINOIS...


CITY           SKY/WX    TMP DP  RH WIND       PRES   REMARKS
CHICAGO-OHARE  PTSUNNY   75  59  57 VRB5      30.18F
CHICAGO-MIDWAY PTSUNNY   77  62  59 VRB6      30.17F
MOLINE         CLOUDY    73  61  65 E10       30.17F
ROCKFORD       CLOUDY    73  58  59 NE8       30.19F
PEORIA         MOSUNNY   73  69  87 NE8       30.16F
$$

NOTE: "FAIR" INDICATES FEW OR NO CLOUDS BELOW 12,000 FEET WITH NO
SIGNIFICANT WEATHER AND/OR OBSTRUCTIONS TO VISIBILITY. WIND
SPEEDS ARE IN MILES-PER-HOUR.




USA.gov is the U.S. government's official web portal to all federal, state and local government web resources and services.